sat.trackr.live / text

‹ back to catalog

STARLINK-3540

NORAD 51719 · 2022-016F

PAYLOAD ACTIVE UNKNOWN

§ Identity

Operator
Country
US
Launch date
2022-02-21
Launch site
AFETR
Launch vehicle
Mass (kg)
RCS (m²)

Purposes: comms

External: N2YO · Heavens-Above · Gunter

§ Orbital elements

Epoch: 2026-05-24T20:23:06.058752Z

Period
95.44 min
Inclination
53.2139°
Eccentricity
0.0001438
Mean motion
15.08840232 rev/d
Perigee alt
538.7 km
Apogee alt
540.7 km
Semi-major
6,917.9 km
B*
-3.1804e-5
RAAN
347.3042°
Arg perigee
83.7928°
Mean anomaly
276.3228°
Rev number
23,492

§ Raw data

STARLINK-35401 51719U 22016F   26144.84937568 -.00000794  00000+0 -31804-4 0  99922 51719  53.2139 347.3042 0001438  83.7928 276.3228 15.08840232234927

JSON: /api/v1/satellites/51719 · /tle

For live sub-satellite position, see the globe view (requires WebGL).

§ Visibility from observer

Set your observer location to see the next 7 days of passes ≥ 10°. The values pass through the URL so the page stays shareable.

No JS? Fill the form by hand. The geolocation button needs JavaScript.